Regional Weather Roundup
Issued by NWS

Home | Current Version | Previous Version | Graphics & Text | Print | Product List | Glossary On
Versions: 1 2 3 4 5 6 7 8 9 10 11 12 13 14 15 16 17 18 19 20 21 22 23 24 25 26 27 28 29 30 31 32 33 34 35 36 37 38 39 40 41 42 43 44 45 46 47 48 49 50
000
ASUS45 KBOI 300310
RWRID

IDAHO REGIONAL WEATHER ROUNDUP
NATIONAL WEATHER SERVICE BOISE ID
900 PM MDT SAT AUG 29 2015

NOTE: "FAIR" INDICATES FEW OR NO CLOUDS BELOW 12000 FEET
WITH NO SIGNIFICANT WEATHER AND/OR OBSTRUCTIONS TO VISIBILITY

IDZ012-014-300400-
SOUTHWEST IDAHO


CITY           SKY/WX    TMP DP  RH WIND       PRES   REMARKS
BOISE          CLOUDY    82  45  27 N12       29.78R
CALDWELL         N/A     79  46  31 NW10      29.79S
MOUNTAIN HOME  CLOUDY    82  43  24 E5        29.78S
$$

IDZ016-017-300400-
SOUTHCENTRAL IDAHO


CITY           SKY/WX    TMP DP  RH WIND       PRES   REMARKS
BURLEY         CLOUDY    71  61  70 S6        29.86R
JEROME         MOCLDY    70  54  56 W7        29.87R
TWIN FALLS     CLOUDY    78  44  29 W8        29.87R
$$

IDZ019>023-300400-
SOUTHEAST IDAHO


CITY           SKY/WX    TMP DP  RH WIND       PRES   REMARKS
IDAHO FALLS    LGT RAIN  72  50  45 S16       30.00R
POCATELLO      MOCLDY    69  55  60 E6        29.88F THUNDER
REXBURG        CLOUDY    69  50  50 S14G21    30.01R
$$

IDZ006-010-011-018-031-032-300400-
CENTRAL IDAHO MOUNTAINS


CITY           SKY/WX    TMP DP  RH WIND       PRES   REMARKS
MCCALL         PTCLDY    64  46  52 S8        29.92F
HAILEY         MOCLDY    68  45  42 CALM      29.96R
STANLEY          N/A     67  35  30 CALM      30.04R
SALMON         CLOUDY    75  37  25 SE3       29.77S
CHALLIS        MOCLDY    78  31  17 S5        29.89S
$$

IDZ002-004-006-007-026-300400-
NORTHERN IDAHO


CITY           SKY/WX    TMP DP  RH WIND       PRES   REMARKS
LEWISTON       NOT AVBL
LOWELL           N/A     64  59  83 CALM      29.86R
COEUR D`ALENE  PTCLDY    64  46  52 S9        29.84R
MULLAN PASS    CLOUDY    48  43  82 SW6       29.99S
$$


USA.gov is the U.S. government's official web portal to all federal, state and local government web resources and services.